Weather History for KAKO - May, 2013

Change the Weather History Date:

Sunday, May 26, 2013

  Actual Average Record
Temperature  
Mean Temperature 68 °F 60 °F  
Max Temperature 84 °F 74 °F 97 °F (1942)
Min Temperature 51 °F 47 °F 31 °F (1992)
Degree Days  
Heating Degree Days 0    
Month to date heating degree days 243  
Cooling Degree Days 3    
Month to date cooling degree days 41  
Growing Degree Days 17 (Base 50)    
Moisture  
Dew Point 50 °F    
Average Humidity 57    
Maximum Humidity 83    
Minimum Humidity 31    
Precipitation  
Precipitation 0.00 in 0.11 in 2.02 in (1967)
Month to date precipitation 1.43 2.40  
Year to date precipitation 3.88 5.66  
Sea Level Pressure  
Sea Level Pressure 29.71 in    
Wind  
Wind Speed 12 mph (NNE)    
Max Wind Speed 21 mph    
Max Gust Speed 28 mph    
Visibility 10 miles    
Events      
T = Trace of Precipitation, MM = Missing Value Source: NWS Daily Summary

Daily Weather History Graph

Daily Weather History Graph

Search for Another Location

Airport or City:

Trip Planner

Search our weather history database for the weather conditions in past years. The results will help you decide how hot, cold, wet, or windy it might be!

Date:

Astronomy

May. 26, 2013 Rise Set
Actual Time 5:28 AM MDT 8:11 PM MDT
Civil Twilight 4:56 AM MDT 8:43 PM MDT
Nautical Twilight 4:16 AM MDT 9:23 PM MDT
Astronomical Twilight 3:31 AM MDT 10:09 PM MDT
Moon 10:01 PM MDT (5/26) 7:00 AM MDT (5/26)
Length of Visible Light 15h 47m
Length of Day
14h 43m
Waning Gibbous, 96% of the Moon is Illuminated
May 26
Waning Gibbous
May 31
Last Quarter
Jun 8
New
Jun 16
First Quarter
Jun 23
Full

Hourly Weather History & Observations

Time (MDT) Temp. Heat Index Dew Point Humidity Pressure Visibility Wind Dir Wind Speed Gust Speed Precip Events Conditions
12:53 AM 60.1 °F - 54.0 °F 80% 29.70 in 10.0 mi SE 10.4 mph - N/A   Clear
1:53 AM 60.1 °F - 52.0 °F 75% 29.68 in 10.0 mi South 12.7 mph - N/A   Clear
2:53 AM 63.0 °F - 41.0 °F 45% 29.67 in 10.0 mi SSW 18.4 mph 27.6 mph N/A   Clear
3:53 AM 57.0 °F - 39.9 °F 53% 29.68 in 10.0 mi SW 13.8 mph - N/A   Clear
4:53 AM 53.1 °F - 42.1 °F 66% 29.70 in 10.0 mi WSW 15.0 mph - N/A   Clear
5:53 AM 52.0 °F - 46.0 °F 80% 29.70 in 10.0 mi West 16.1 mph - N/A   Clear
6:53 AM 55.0 °F - 50.0 °F 83% 29.72 in 10.0 mi WSW 13.8 mph - N/A   Clear
7:53 AM 59.0 °F - 52.0 °F 78% 29.73 in 10.0 mi West 9.2 mph - N/A   Clear
8:53 AM 66.0 °F - 55.0 °F 68% 29.75 in 10.0 mi West 18.4 mph - N/A   Clear
9:53 AM 72.0 °F - 55.0 °F 55% 29.76 in 10.0 mi WNW 12.7 mph - N/A   Clear
10:53 AM 73.9 °F - 53.1 °F 48% 29.77 in 10.0 mi North 10.4 mph - N/A   Clear
11:53 AM 75.9 °F - 54.0 °F 46% 29.76 in 10.0 mi North 17.3 mph - N/A   Clear
12:53 PM 79.0 °F - 53.1 °F 40% 29.76 in 10.0 mi North 16.1 mph 25.3 mph N/A   Clear
1:53 PM 80.1 °F 80.0 °F 54.0 °F 40% 29.74 in 10.0 mi NE 12.7 mph - N/A   Clear
2:53 PM 82.0 °F - 50.0 °F 33% 29.72 in 10.0 mi NNE 6.9 mph - N/A   Clear
3:53 PM 82.9 °F - 48.9 °F 31% 29.70 in 10.0 mi NE 10.4 mph - N/A   Clear
4:53 PM 82.0 °F - 48.9 °F 31% 29.71 in 10.0 mi ENE 5.8 mph - N/A   Clear
5:53 PM 82.0 °F - 48.0 °F 30% 29.70 in 10.0 mi ENE 8.1 mph - N/A   Clear
6:53 PM 77.0 °F - 50.0 °F 39% 29.70 in 10.0 mi NE 8.1 mph - N/A   Clear
7:53 PM 73.9 °F - 52.0 °F 46% 29.70 in 10.0 mi ENE 8.1 mph - N/A   Clear
8:53 PM 71.1 °F - 52.0 °F 51% 29.70 in 10.0 mi ENE 10.4 mph - N/A   Clear
9:53 PM 69.1 °F - 51.1 °F 53% 29.69 in 10.0 mi East 5.8 mph - N/A   Clear
10:53 PM 64.0 °F - 52.0 °F 65% 29.68 in 10.0 mi ENE 4.6 mph - N/A   Clear
11:53 PM 60.1 °F - 51.1 °F 72% 29.68 in 10.0 mi NE 8.1 mph - N/A   Clear